Year,Month,Day,Hour,Minute,Value (Times are PST for temperature in C)
2017,09,16,00,00,10.40
2017,09,16,00,01,10.40
2017,09,16,00,02,10.40
2017,09,16,00,03,10.40
2017,09,16,00,04,10.40
2017,09,16,00,05,10.30
2017,09,16,00,06,10.30
2017,09,16,00,07,10.30
2017,09,16,00,08,10.30
2017,09,16,00,09,10.30
2017,09,16,00,10,10.20
2017,09,16,00,11,10.20
2017,09,16,00,12,10.20
2017,09,16,00,13,10.10
2017,09,16,00,14,10.10
2017,09,16,00,15,10.10
2017,09,16,00,16,10.10
2017,09,16,00,17,10.00
2017,09,16,00,18,10.00
2017,09,16,00,19,10.00
2017,09,16,00,20,10.00
2017,09,16,00,21,10.00
2017,09,16,00,22,10.00
2017,09,16,00,23,10.10
2017,09,16,00,24,10.10
2017,09,16,00,25,10.10
2017,09,16,00,26,10.20
2017,09,16,00,27,10.20
2017,09,16,00,28,10.30
2017,09,16,00,29,10.30
2017,09,16,00,30,10.30
2017,09,16,00,31,10.30
2017,09,16,00,32,10.30
2017,09,16,00,33,10.30
2017,09,16,00,34,10.30
2017,09,16,00,35,10.30
2017,09,16,00,36,10.30
2017,09,16,00,37,10.20
2017,09,16,00,38,10.20
2017,09,16,00,39,10.10
2017,09,16,00,40,10.10
2017,09,16,00,41,10.10
2017,09,16,00,42,10.00
2017,09,16,00,43,10.00
2017,09,16,00,44,10.00
2017,09,16,00,45,9.90
2017,09,16,00,46,9.90
2017,09,16,00,47,9.90
2017,09,16,00,48,9.80
2017,09,16,00,49,9.80
2017,09,16,00,50,9.80
2017,09,16,00,51,9.80
2017,09,16,00,52,9.80
2017,09,16,00,53,9.80
2017,09,16,00,54,9.70
2017,09,16,00,55,9.70
2017,09,16,00,56,9.70
2017,09,16,00,57,9.70
2017,09,16,00,58,9.70
2017,09,16,00,59,9.70
2017,09,16,01,00,9.70
2017,09,16,01,01,9.70
2017,09,16,01,02,9.70
2017,09,16,01,03,9.70
2017,09,16,01,04,9.70
2017,09,16,01,05,9.70
2017,09,16,01,06,9.70
2017,09,16,01,07,9.70
2017,09,16,01,08,9.70
2017,09,16,01,09,9.70
2017,09,16,01,10,9.70
2017,09,16,01,11,9.60
2017,09,16,01,12,9.60
2017,09,16,01,13,9.60
2017,09,16,01,14,9.60
2017,09,16,01,15,9.70
2017,09,16,01,16,9.70
2017,09,16,01,17,9.70
2017,09,16,01,18,9.80
2017,09,16,01,19,9.90
2017,09,16,01,20,9.90
2017,09,16,01,21,9.90
2017,09,16,01,22,10.00
2017,09,16,01,23,10.10
2017,09,16,01,24,10.10
2017,09,16,01,25,10.20
2017,09,16,01,26,10.20
2017,09,16,01,27,10.20
2017,09,16,01,28,10.30
2017,09,16,01,29,10.30
2017,09,16,01,30,10.30
2017,09,16,01,31,10.30
2017,09,16,01,32,10.30
2017,09,16,01,33,10.30
2017,09,16,01,34,10.30
2017,09,16,01,35,10.30
2017,09,16,01,36,10.30
2017,09,16,01,37,10.30
2017,09,16,01,38,10.30
2017,09,16,01,39,10.30
2017,09,16,01,40,10.30
2017,09,16,01,41,10.30
2017,09,16,01,42,10.30
2017,09,16,01,43,10.30
2017,09,16,01,44,10.30
2017,09,16,01,45,10.30
2017,09,16,01,46,10.30
2017,09,16,01,47,10.30
2017,09,16,01,48,10.30
2017,09,16,01,49,10.30
2017,09,16,01,50,10.20
2017,09,16,01,51,10.20
2017,09,16,01,52,10.20
2017,09,16,01,53,10.20
2017,09,16,01,54,10.10
2017,09,16,01,55,10.10
2017,09,16,01,56,10.00
2017,09,16,01,57,10.00
2017,09,16,01,58,9.90
2017,09,16,01,59,9.80
2017,09,16,02,00,9.80
2017,09,16,02,01,9.70
2017,09,16,02,02,9.70
2017,09,16,02,03,9.60
2017,09,16,02,04,9.60
2017,09,16,02,05,9.60
2017,09,16,02,06,9.60
2017,09,16,02,07,9.60
2017,09,16,02,08,9.60
2017,09,16,02,09,9.60
2017,09,16,02,10,9.60
2017,09,16,02,11,9.50
2017,09,16,02,12,9.50
2017,09,16,02,13,9.50
2017,09,16,02,14,9.50
2017,09,16,02,15,9.50
2017,09,16,02,16,9.50
2017,09,16,02,17,9.40
2017,09,16,02,18,9.40
2017,09,16,02,19,9.40
2017,09,16,02,20,9.30
2017,09,16,02,21,9.30
2017,09,16,02,22,9.30
2017,09,16,02,23,9.30
2017,09,16,02,24,9.30
2017,09,16,02,25,9.30
2017,09,16,02,26,9.30
2017,09,16,02,27,9.30
2017,09,16,02,28,9.30
2017,09,16,02,29,9.20
2017,09,16,02,30,9.20
2017,09,16,02,31,9.20
2017,09,16,02,32,9.20
2017,09,16,02,33,9.20
2017,09,16,02,34,9.20
2017,09,16,02,35,9.20
2017,09,16,02,36,9.10
2017,09,16,02,37,9.10
2017,09,16,02,38,9.10
2017,09,16,02,39,9.00
2017,09,16,02,40,9.00
2017,09,16,02,41,9.00
2017,09,16,02,42,8.90
2017,09,16,02,43,8.90
2017,09,16,02,44,8.80
2017,09,16,02,45,8.80
2017,09,16,02,46,8.80
2017,09,16,02,47,8.80
2017,09,16,02,48,8.80
2017,09,16,02,49,8.80
2017,09,16,02,50,8.70
2017,09,16,02,51,8.70
2017,09,16,02,52,8.70
2017,09,16,02,53,8.70
2017,09,16,02,54,8.70
2017,09,16,02,55,8.60
2017,09,16,02,56,8.60
2017,09,16,02,57,8.60
2017,09,16,02,58,8.60
2017,09,16,02,59,8.60
2017,09,16,03,00,8.60
2017,09,16,03,01,8.50
2017,09,16,03,02,8.50
2017,09,16,03,03,8.40
2017,09,16,03,04,8.40
2017,09,16,03,05,8.40
2017,09,16,03,06,8.40
2017,09,16,03,07,8.30
2017,09,16,03,08,8.30
2017,09,16,03,09,8.30
2017,09,16,03,10,8.30
2017,09,16,03,11,8.30
2017,09,16,03,12,8.30
2017,09,16,03,13,8.20
2017,09,16,03,14,8.20
2017,09,16,03,15,8.20
2017,09,16,03,16,8.20
2017,09,16,03,17,8.10
2017,09,16,03,18,8.10
2017,09,16,03,19,8.10
2017,09,16,03,20,8.10
2017,09,16,03,21,8.10
2017,09,16,03,22,8.10
2017,09,16,03,23,8.10
2017,09,16,03,24,8.10
2017,09,16,03,25,8.00
2017,09,16,03,26,8.00
2017,09,16,03,27,8.00
2017,09,16,03,28,8.00
2017,09,16,03,29,8.00
2017,09,16,03,30,7.90
2017,09,16,03,31,7.90
2017,09,16,03,32,7.90
2017,09,16,03,33,7.90
2017,09,16,03,34,7.90
2017,09,16,03,35,7.90
2017,09,16,03,36,7.90
2017,09,16,03,37,7.90
2017,09,16,03,38,7.90
2017,09,16,03,39,7.90
2017,09,16,03,40,7.90
2017,09,16,03,41,7.90
2017,09,16,03,42,7.90
2017,09,16,03,43,7.90
2017,09,16,03,44,7.90
2017,09,16,03,45,8.00
2017,09,16,03,46,8.00
2017,09,16,03,47,8.10
2017,09,16,03,48,8.10
2017,09,16,03,49,8.10
2017,09,16,03,50,8.10
2017,09,16,03,51,8.10
2017,09,16,03,52,8.10
2017,09,16,03,53,8.10
2017,09,16,03,54,8.10
2017,09,16,03,55,8.10
2017,09,16,03,56,8.10
2017,09,16,03,57,8.00
2017,09,16,03,58,7.90
2017,09,16,03,59,7.80
2017,09,16,04,00,7.80
2017,09,16,04,01,7.80
2017,09,16,04,02,7.80
2017,09,16,04,03,7.90
2017,09,16,04,04,8.00
2017,09,16,04,05,8.00
2017,09,16,04,06,8.10
2017,09,16,04,07,8.10
2017,09,16,04,08,8.20
2017,09,16,04,09,8.20
2017,09,16,04,10,8.30
2017,09,16,04,11,8.30
2017,09,16,04,12,8.40
2017,09,16,04,13,8.40
2017,09,16,04,14,8.50
2017,09,16,04,15,8.60
2017,09,16,04,16,8.60
2017,09,16,04,17,8.60
2017,09,16,04,18,8.60
2017,09,16,04,19,8.60
2017,09,16,04,20,8.60
2017,09,16,04,21,8.60
2017,09,16,04,22,8.60
2017,09,16,04,23,8.60
2017,09,16,04,24,8.60
2017,09,16,04,25,8.60
2017,09,16,04,26,8.60
2017,09,16,04,27,8.60
2017,09,16,04,28,8.60
2017,09,16,04,29,8.60
2017,09,16,04,30,8.60
2017,09,16,04,31,8.60
2017,09,16,04,32,8.50
2017,09,16,04,33,8.50
2017,09,16,04,34,8.50
2017,09,16,04,35,8.50
2017,09,16,04,36,8.60
2017,09,16,04,37,8.60
2017,09,16,04,38,8.60
2017,09,16,04,39,8.60
2017,09,16,04,40,8.60
2017,09,16,04,41,8.70
2017,09,16,04,42,8.70
2017,09,16,04,43,8.70
2017,09,16,04,44,8.70
2017,09,16,04,45,8.70
2017,09,16,04,46,8.70
2017,09,16,04,47,8.70
2017,09,16,04,48,8.70
2017,09,16,04,49,8.70
2017,09,16,04,50,8.70
2017,09,16,04,51,8.70
2017,09,16,04,52,8.80
2017,09,16,04,53,8.80
2017,09,16,04,54,8.80
2017,09,16,04,55,8.80
2017,09,16,04,56,8.80
2017,09,16,04,57,8.80
2017,09,16,04,58,8.90
2017,09,16,04,59,8.90
2017,09,16,05,00,9.00
2017,09,16,05,01,9.20
2017,09,16,05,02,9.30
2017,09,16,05,03,9.30
2017,09,16,05,04,9.40
2017,09,16,05,05,9.40
2017,09,16,05,06,9.40
2017,09,16,05,07,9.30
2017,09,16,05,08,9.30
2017,09,16,05,09,9.20
2017,09,16,05,10,9.20
2017,09,16,05,11,9.10
2017,09,16,05,12,9.00
2017,09,16,05,13,8.90
2017,09,16,05,14,8.80
2017,09,16,05,15,8.70
2017,09,16,05,16,8.60
2017,09,16,05,17,8.50
2017,09,16,05,18,8.40
2017,09,16,05,19,8.40
2017,09,16,05,20,8.30
2017,09,16,05,21,8.20
2017,09,16,05,22,8.10
2017,09,16,05,23,8.10
2017,09,16,05,24,8.10
2017,09,16,05,25,8.10
2017,09,16,05,26,8.10
2017,09,16,05,27,8.10
2017,09,16,05,28,8.00
2017,09,16,05,29,8.00
2017,09,16,05,30,7.90
2017,09,16,05,31,7.90
2017,09,16,05,32,7.90
2017,09,16,05,33,7.90
2017,09,16,05,34,7.90
2017,09,16,05,35,7.90
2017,09,16,05,36,7.90
2017,09,16,05,37,7.90
2017,09,16,05,38,7.90
2017,09,16,05,39,7.90
2017,09,16,05,40,7.90
2017,09,16,05,41,7.90
2017,09,16,05,42,7.90
2017,09,16,05,43,8.00
2017,09,16,05,44,7.90
2017,09,16,05,45,7.90
2017,09,16,05,46,7.90
2017,09,16,05,47,8.00
2017,09,16,05,48,8.00
2017,09,16,05,49,8.00
2017,09,16,05,50,8.00
2017,09,16,05,51,8.00
2017,09,16,05,52,8.00
2017,09,16,05,53,8.10
2017,09,16,05,54,8.10
2017,09,16,05,55,8.20
2017,09,16,05,56,8.20
2017,09,16,05,57,8.30
2017,09,16,05,58,8.30
2017,09,16,05,59,8.40
2017,09,16,06,00,8.50
2017,09,16,06,01,8.60
2017,09,16,06,02,8.70
2017,09,16,06,03,8.70
2017,09,16,06,04,8.80
2017,09,16,06,05,8.80
2017,09,16,06,06,8.80
2017,09,16,06,07,8.80
2017,09,16,06,08,8.80
2017,09,16,06,09,8.80
2017,09,16,06,10,8.70
2017,09,16,06,11,8.70
2017,09,16,06,12,8.70
2017,09,16,06,13,8.60
2017,09,16,06,14,8.60
2017,09,16,06,15,8.60
2017,09,16,06,16,8.60
2017,09,16,06,17,8.50
2017,09,16,06,18,8.50
2017,09,16,06,19,8.50
2017,09,16,06,20,8.40
2017,09,16,06,21,8.40
2017,09,16,06,22,8.40
2017,09,16,06,23,8.40
2017,09,16,06,24,8.40
2017,09,16,06,25,8.40
2017,09,16,06,26,8.50
2017,09,16,06,27,8.50
2017,09,16,06,28,8.50
2017,09,16,06,29,8.50
2017,09,16,06,30,8.50
2017,09,16,06,31,8.60
2017,09,16,06,32,8.60
2017,09,16,06,33,8.60
2017,09,16,06,34,8.60
2017,09,16,06,35,8.60
2017,09,16,06,36,8.60
2017,09,16,06,37,8.60
2017,09,16,06,38,8.60
2017,09,16,06,39,8.60
2017,09,16,06,40,8.60
2017,09,16,06,41,8.60
2017,09,16,06,42,8.60
2017,09,16,06,43,8.60
2017,09,16,06,44,8.60
2017,09,16,06,45,8.60
2017,09,16,06,46,8.60
2017,09,16,06,47,8.60
2017,09,16,06,48,8.70
2017,09,16,06,49,8.80
2017,09,16,06,50,8.80
2017,09,16,06,51,8.90
2017,09,16,06,52,9.00
2017,09,16,06,53,9.10
2017,09,16,06,54,9.10
2017,09,16,06,55,9.20
2017,09,16,06,56,9.20
2017,09,16,06,57,9.20
2017,09,16,06,58,9.20
2017,09,16,06,59,9.30
2017,09,16,07,00,9.40
2017,09,16,07,01,9.40
2017,09,16,07,02,9.40
2017,09,16,07,03,9.40
2017,09,16,07,04,9.40
2017,09,16,07,05,9.40
2017,09,16,07,06,9.30
2017,09,16,07,07,9.30
2017,09,16,07,08,9.30
2017,09,16,07,09,9.30
2017,09,16,07,10,9.30
2017,09,16,07,11,9.30
2017,09,16,07,12,9.30
2017,09,16,07,13,9.30
2017,09,16,07,14,9.40
2017,09,16,07,15,9.40
2017,09,16,07,16,9.40
2017,09,16,07,17,9.40
2017,09,16,07,18,9.40
2017,09,16,07,19,9.30
2017,09,16,07,20,9.30
2017,09,16,07,21,9.30
2017,09,16,07,22,9.30
2017,09,16,07,23,9.20
2017,09,16,07,24,9.20
2017,09,16,07,25,9.20
2017,09,16,07,26,9.20
2017,09,16,07,27,9.30
2017,09,16,07,28,9.30
2017,09,16,07,29,9.30
2017,09,16,07,30,9.30
2017,09,16,07,31,9.30
2017,09,16,07,32,9.30
2017,09,16,07,33,9.30
2017,09,16,07,34,9.30
2017,09,16,07,35,9.30
2017,09,16,07,36,9.30
2017,09,16,07,37,9.40
2017,09,16,07,38,9.40
2017,09,16,07,39,9.40
2017,09,16,07,40,9.50
2017,09,16,07,41,9.60
2017,09,16,07,42,9.60
2017,09,16,07,43,9.70
2017,09,16,07,44,9.70
2017,09,16,07,45,9.80
2017,09,16,07,46,9.80
2017,09,16,07,47,9.90
2017,09,16,07,48,9.90
2017,09,16,07,49,10.00
2017,09,16,07,50,10.10
2017,09,16,07,51,10.10
2017,09,16,07,52,10.20
2017,09,16,07,53,10.30
2017,09,16,07,54,10.40
2017,09,16,07,55,10.50
2017,09,16,07,56,10.50
2017,09,16,07,57,10.60
2017,09,16,07,58,10.70
2017,09,16,07,59,10.80
2017,09,16,08,00,10.80
2017,09,16,08,01,10.90
2017,09,16,08,02,10.90
2017,09,16,08,03,11.00
2017,09,16,08,04,11.00
2017,09,16,08,05,11.10
2017,09,16,08,06,11.10
2017,09,16,08,07,11.00
2017,09,16,08,08,11.00
2017,09,16,08,09,10.90
2017,09,16,08,10,10.90
2017,09,16,08,11,10.80
2017,09,16,08,12,10.80
2017,09,16,08,13,10.70
2017,09,16,08,14,10.70
2017,09,16,08,15,10.70
2017,09,16,08,16,10.60
2017,09,16,08,17,10.60
2017,09,16,08,18,10.60
2017,09,16,08,19,10.60
2017,09,16,08,20,10.60
2017,09,16,08,21,10.60
2017,09,16,08,22,10.70
2017,09,16,08,23,10.70
2017,09,16,08,24,10.70
2017,09,16,08,25,10.80
2017,09,16,08,26,10.80
2017,09,16,08,27,10.90
2017,09,16,08,28,10.90
2017,09,16,08,29,11.00
2017,09,16,08,30,11.00
2017,09,16,08,31,11.10
2017,09,16,08,32,11.10
2017,09,16,08,33,11.10
2017,09,16,08,34,11.20
2017,09,16,08,35,11.20
2017,09,16,08,36,11.20
2017,09,16,08,37,11.30
2017,09,16,08,38,11.30
2017,09,16,08,39,11.30
2017,09,16,08,40,11.40
2017,09,16,08,41,11.40
2017,09,16,08,42,11.50
2017,09,16,08,43,11.60
2017,09,16,08,44,11.60
2017,09,16,08,45,11.60
2017,09,16,08,46,11.70
2017,09,16,08,47,11.70
2017,09,16,08,48,11.70
2017,09,16,08,49,11.70
2017,09,16,08,50,11.80
2017,09,16,08,51,11.80
2017,09,16,08,52,11.80
2017,09,16,08,53,11.90
2017,09,16,08,54,11.90
2017,09,16,08,55,11.90
2017,09,16,08,56,12.00
2017,09,16,08,57,12.00
2017,09,16,08,58,12.00
2017,09,16,08,59,12.10
2017,09,16,09,00,12.10
2017,09,16,09,01,12.20
2017,09,16,09,02,12.30
2017,09,16,09,03,12.30
2017,09,16,09,04,12.40
2017,09,16,09,05,12.50
2017,09,16,09,06,12.60
2017,09,16,09,07,12.80
2017,09,16,09,08,12.90
2017,09,16,09,09,13.00
2017,09,16,09,10,13.20
2017,09,16,09,11,13.30
2017,09,16,09,12,13.30
2017,09,16,09,13,13.40
2017,09,16,09,14,13.50
2017,09,16,09,15,13.60
2017,09,16,09,16,13.80
2017,09,16,09,17,13.80
2017,09,16,09,18,13.90
2017,09,16,09,19,14.00
2017,09,16,09,20,14.20
2017,09,16,09,21,14.30
2017,09,16,09,22,14.40
2017,09,16,09,23,14.50
2017,09,16,09,24,14.70
2017,09,16,09,25,14.80
2017,09,16,09,26,14.90
2017,09,16,09,27,15.10
2017,09,16,09,28,15.20
2017,09,16,09,29,15.30
2017,09,16,09,30,15.40
2017,09,16,09,31,15.50
2017,09,16,09,32,15.60
2017,09,16,09,33,15.70
2017,09,16,09,34,15.80
2017,09,16,09,35,15.80
2017,09,16,09,36,15.90
2017,09,16,09,37,16.00
2017,09,16,09,38,16.10
2017,09,16,09,39,16.20
2017,09,16,09,40,16.30
2017,09,16,09,41,16.40
2017,09,16,09,42,16.40
2017,09,16,09,43,16.00
2017,09,16,09,44,15.70
2017,09,16,09,45,15.40
2017,09,16,09,46,15.10
2017,09,16,09,47,14.80
2017,09,16,09,48,14.50
2017,09,16,09,49,14.20
2017,09,16,09,50,14.00
2017,09,16,09,51,13.90
2017,09,16,09,52,13.80
2017,09,16,09,53,13.70
2017,09,16,09,54,13.60
2017,09,16,09,55,13.50
2017,09,16,09,56,13.50
2017,09,16,09,57,13.30
2017,09,16,09,58,13.20
2017,09,16,09,59,12.90
2017,09,16,10,00,12.80
2017,09,16,10,01,12.60
2017,09,16,10,02,12.40
2017,09,16,10,03,12.40
2017,09,16,10,04,12.30
2017,09,16,10,05,12.30
2017,09,16,10,06,12.40
2017,09,16,10,07,12.50
2017,09,16,10,08,12.60
2017,09,16,10,09,12.60
2017,09,16,10,10,12.70
2017,09,16,10,11,12.90
2017,09,16,10,12,13.00
2017,09,16,10,13,13.10
2017,09,16,10,14,13.30
2017,09,16,10,15,13.30
2017,09,16,10,16,13.30
2017,09,16,10,17,13.20
2017,09,16,10,18,13.20
2017,09,16,10,19,13.20
2017,09,16,10,20,13.30
2017,09,16,10,21,13.30
2017,09,16,10,22,13.50
2017,09,16,10,23,13.60
2017,09,16,10,24,13.60
2017,09,16,10,25,13.70
2017,09,16,10,26,13.80
2017,09,16,10,27,13.80
2017,09,16,10,28,13.90
2017,09,16,10,29,14.00
2017,09,16,10,30,14.10
2017,09,16,10,31,14.20
2017,09,16,10,32,14.30
2017,09,16,10,33,14.30
2017,09,16,10,34,14.30
2017,09,16,10,35,14.40
2017,09,16,10,36,14.40
2017,09,16,10,37,14.30
2017,09,16,10,38,14.20
2017,09,16,10,39,14.00
2017,09,16,10,40,13.80
2017,09,16,10,41,13.80
2017,09,16,10,42,13.70
2017,09,16,10,43,13.60
2017,09,16,10,44,13.50
2017,09,16,10,45,13.50
2017,09,16,10,46,13.60
2017,09,16,10,47,13.60
2017,09,16,10,48,13.60
2017,09,16,10,49,13.50
2017,09,16,10,50,13.50
2017,09,16,10,51,13.40
2017,09,16,10,52,13.40
2017,09,16,10,53,13.30
2017,09,16,10,54,13.30
2017,09,16,10,55,13.30
2017,09,16,10,56,13.30
2017,09,16,10,57,13.20
2017,09,16,10,58,13.20
2017,09,16,10,59,13.20
2017,09,16,11,00,13.20
2017,09,16,11,01,13.20
2017,09,16,11,02,13.10
2017,09,16,11,03,13.10
2017,09,16,11,04,13.00
2017,09,16,11,05,13.00
2017,09,16,11,06,13.00
2017,09,16,11,07,13.00
2017,09,16,11,08,13.10
2017,09,16,11,09,13.20
2017,09,16,11,10,13.30
2017,09,16,11,11,13.30
2017,09,16,11,12,13.40
2017,09,16,11,13,13.40
2017,09,16,11,14,13.50
2017,09,16,11,15,13.40
2017,09,16,11,16,13.40
2017,09,16,11,17,13.40
2017,09,16,11,18,13.40
2017,09,16,11,19,13.50
2017,09,16,11,20,13.50
2017,09,16,11,21,13.50
2017,09,16,11,22,13.60
2017,09,16,11,23,13.70
2017,09,16,11,24,13.70
2017,09,16,11,25,13.80
2017,09,16,11,26,13.80
2017,09,16,11,27,13.90
2017,09,16,11,28,14.10
2017,09,16,11,29,14.20
2017,09,16,11,30,14.40
2017,09,16,11,31,14.40
2017,09,16,11,32,14.40
2017,09,16,11,33,14.40
2017,09,16,11,34,14.40
2017,09,16,11,35,14.30
2017,09,16,11,36,14.30
2017,09,16,11,37,14.30
2017,09,16,11,38,14.30
2017,09,16,11,39,14.40
2017,09,16,11,40,14.50
2017,09,16,11,41,14.60
2017,09,16,11,42,14.60
2017,09,16,11,43,14.70
2017,09,16,11,44,14.70
2017,09,16,11,45,14.70
2017,09,16,11,46,14.70
2017,09,16,11,47,14.80
2017,09,16,11,48,14.90
2017,09,16,11,49,15.10
2017,09,16,11,50,15.20
2017,09,16,11,51,15.20
2017,09,16,11,52,15.20
2017,09,16,11,53,15.10
2017,09,16,11,54,14.90
2017,09,16,11,55,14.80
2017,09,16,11,56,14.70
2017,09,16,11,57,14.60
2017,09,16,11,58,14.50
2017,09,16,11,59,14.40
2017,09,16,12,00,14.30
2017,09,16,12,01,14.10
2017,09,16,12,02,14.00
2017,09,16,12,03,14.00
2017,09,16,12,04,14.00
2017,09,16,12,05,13.80
2017,09,16,12,06,13.80
2017,09,16,12,07,13.80
2017,09,16,12,08,13.90
2017,09,16,12,09,13.90
2017,09,16,12,10,13.90
2017,09,16,12,11,13.90
2017,09,16,12,12,13.90
2017,09,16,12,13,14.00
2017,09,16,12,14,14.10
2017,09,16,12,15,14.10
2017,09,16,12,16,14.20
2017,09,16,12,17,14.20
2017,09,16,12,18,14.30
2017,09,16,12,19,14.30
2017,09,16,12,20,14.30
2017,09,16,12,21,14.30
2017,09,16,12,22,14.20
2017,09,16,12,23,14.10
2017,09,16,12,24,13.90
2017,09,16,12,25,13.80
2017,09,16,12,26,13.70
2017,09,16,12,27,13.60
2017,09,16,12,28,13.60
2017,09,16,12,29,13.70
2017,09,16,12,30,13.70
2017,09,16,12,31,13.80
2017,09,16,12,32,13.90
2017,09,16,12,33,14.00
2017,09,16,12,34,14.10
2017,09,16,12,35,14.20
2017,09,16,12,36,14.30
2017,09,16,12,37,14.20
2017,09,16,12,38,14.20
2017,09,16,12,39,14.30
2017,09,16,12,40,14.40
2017,09,16,12,41,14.50
2017,09,16,12,42,14.60
2017,09,16,12,43,14.60
2017,09,16,12,44,14.50
2017,09,16,12,45,14.40
2017,09,16,12,46,14.40
2017,09,16,12,47,14.40
2017,09,16,12,48,14.40
2017,09,16,12,49,14.50
2017,09,16,12,50,14.50
2017,09,16,12,51,14.60
2017,09,16,12,52,14.60
2017,09,16,12,53,14.60
2017,09,16,12,54,14.60
2017,09,16,12,55,14.60
2017,09,16,12,56,14.60
2017,09,16,12,57,14.50
2017,09,16,12,58,14.60
2017,09,16,12,59,14.70
2017,09,16,13,00,14.70
2017,09,16,13,01,14.80
2017,09,16,13,02,14.90
2017,09,16,13,03,14.90
2017,09,16,13,04,15.00
2017,09,16,13,05,15.10
2017,09,16,13,06,15.40
2017,09,16,13,07,15.60
2017,09,16,13,08,15.90
2017,09,16,13,09,16.00
2017,09,16,13,10,16.20
2017,09,16,13,11,16.30
2017,09,16,13,12,16.40
2017,09,16,13,13,16.40
2017,09,16,13,14,16.40
2017,09,16,13,15,16.30
2017,09,16,13,16,16.30
2017,09,16,13,17,16.30
2017,09,16,13,18,16.30
2017,09,16,13,19,16.20
2017,09,16,13,20,16.10
2017,09,16,13,21,16.10
2017,09,16,13,22,16.10
2017,09,16,13,23,16.10
2017,09,16,13,24,16.10
2017,09,16,13,25,16.10
2017,09,16,13,26,16.20
2017,09,16,13,27,16.30
2017,09,16,13,28,16.40
2017,09,16,13,29,16.40
2017,09,16,13,30,16.30
2017,09,16,13,31,16.40
2017,09,16,13,32,16.30
2017,09,16,13,33,16.20
2017,09,16,13,34,16.10
2017,09,16,13,35,16.10
2017,09,16,13,36,15.90
2017,09,16,13,37,15.70
2017,09,16,13,38,15.50
2017,09,16,13,39,15.20
2017,09,16,13,40,15.00
2017,09,16,13,41,14.90
2017,09,16,13,42,14.90
2017,09,16,13,43,14.90
2017,09,16,13,44,14.90
2017,09,16,13,45,14.90
2017,09,16,13,46,15.00
2017,09,16,13,47,15.10
2017,09,16,13,48,15.10
2017,09,16,13,49,15.10
2017,09,16,13,50,15.20
2017,09,16,13,51,15.20
2017,09,16,13,52,15.20
2017,09,16,13,53,15.20
2017,09,16,13,54,15.30
2017,09,16,13,55,15.40
2017,09,16,13,56,15.50
2017,09,16,13,57,15.50
2017,09,16,13,58,15.60
2017,09,16,13,59,15.60
2017,09,16,14,00,15.60
2017,09,16,14,01,15.70
2017,09,16,14,02,15.60
2017,09,16,14,03,15.60
2017,09,16,14,04,15.60
2017,09,16,14,05,15.50
2017,09,16,14,06,15.50
2017,09,16,14,07,15.60
2017,09,16,14,08,15.70
2017,09,16,14,09,15.90
2017,09,16,14,10,16.00
2017,09,16,14,11,16.20
2017,09,16,14,12,16.30
2017,09,16,14,13,16.30
2017,09,16,14,14,16.40
2017,09,16,14,15,16.60
2017,09,16,14,16,16.80
2017,09,16,14,17,17.00
2017,09,16,14,18,17.10
2017,09,16,14,19,17.30
2017,09,16,14,20,17.30
2017,09,16,14,21,17.30
2017,09,16,14,22,17.30
2017,09,16,14,23,17.30
2017,09,16,14,24,17.40
2017,09,16,14,25,17.40
2017,09,16,14,26,17.30
2017,09,16,14,27,17.30
2017,09,16,14,28,17.30
2017,09,16,14,29,17.30
2017,09,16,14,30,17.30
2017,09,16,14,31,17.30
2017,09,16,14,32,17.40
2017,09,16,14,33,17.50
2017,09,16,14,34,17.50
2017,09,16,14,35,17.60
2017,09,16,14,36,17.60
2017,09,16,14,37,17.70
2017,09,16,14,38,17.70
2017,09,16,14,39,17.70
2017,09,16,14,40,17.80
2017,09,16,14,41,17.90
2017,09,16,14,42,18.00
2017,09,16,14,43,18.20
2017,09,16,14,44,18.30
2017,09,16,14,45,18.40
2017,09,16,14,46,18.40
2017,09,16,14,47,18.40
2017,09,16,14,48,18.30
2017,09,16,14,49,18.20
2017,09,16,14,50,18.10
2017,09,16,14,51,18.00
2017,09,16,14,52,17.80
2017,09,16,14,53,17.80
2017,09,16,14,54,17.70
2017,09,16,14,55,17.60
2017,09,16,14,56,17.50
2017,09,16,14,57,17.50
2017,09,16,14,58,17.50
2017,09,16,14,59,17.40
2017,09,16,15,00,17.40
2017,09,16,15,01,17.30
2017,09,16,15,02,17.30
2017,09,16,15,03,17.20
2017,09,16,15,04,17.20
2017,09,16,15,05,17.20
2017,09,16,15,06,17.30
2017,09,16,15,07,17.30
2017,09,16,15,08,17.30
2017,09,16,15,09,17.30
2017,09,16,15,10,17.50
2017,09,16,15,11,17.60
2017,09,16,15,12,17.70
2017,09,16,15,13,17.80
2017,09,16,15,14,17.90
2017,09,16,15,15,17.90
2017,09,16,15,16,17.90
2017,09,16,15,17,17.90
2017,09,16,15,18,17.80
2017,09,16,15,19,17.80
2017,09,16,15,20,17.80
2017,09,16,15,21,17.80
2017,09,16,15,22,17.90
2017,09,16,15,23,17.80
2017,09,16,15,24,17.80
2017,09,16,15,25,17.80
2017,09,16,15,26,17.90
2017,09,16,15,27,17.90
2017,09,16,15,28,18.00
2017,09,16,15,29,17.90
2017,09,16,15,30,17.80
2017,09,16,15,31,17.80
2017,09,16,15,32,17.60
2017,09,16,15,33,17.60
2017,09,16,15,34,17.50
2017,09,16,15,35,17.50
2017,09,16,15,36,17.50
2017,09,16,15,37,17.60
2017,09,16,15,38,17.60
2017,09,16,15,39,17.60
2017,09,16,15,40,17.60
2017,09,16,15,41,17.70
2017,09,16,15,42,17.70
2017,09,16,15,43,17.70
2017,09,16,15,44,17.70
2017,09,16,15,45,17.70
2017,09,16,15,46,17.70
2017,09,16,15,47,17.80
2017,09,16,15,48,17.90
2017,09,16,15,49,17.90
2017,09,16,15,50,17.90
2017,09,16,15,51,17.90
2017,09,16,15,52,17.90
2017,09,16,15,53,17.90
2017,09,16,15,54,18.00
2017,09,16,15,55,18.10
2017,09,16,15,56,18.20
2017,09,16,15,57,18.30
2017,09,16,15,58,18.40
2017,09,16,15,59,18.40
2017,09,16,16,00,18.40
2017,09,16,16,01,18.40
2017,09,16,16,02,18.40
2017,09,16,16,03,18.30
2017,09,16,16,04,18.20
2017,09,16,16,05,17.90
2017,09,16,16,06,17.60
2017,09,16,16,07,17.20
2017,09,16,16,08,17.00
2017,09,16,16,09,16.70
2017,09,16,16,10,16.40
2017,09,16,16,11,16.30
2017,09,16,16,12,16.20
2017,09,16,16,13,16.10
2017,09,16,16,14,16.10
2017,09,16,16,15,16.10
2017,09,16,16,16,16.00
2017,09,16,16,17,15.90
2017,09,16,16,18,15.90
2017,09,16,16,19,15.80
2017,09,16,16,20,15.90
2017,09,16,16,21,15.80
2017,09,16,16,22,15.80
2017,09,16,16,23,15.80
2017,09,16,16,24,15.70
2017,09,16,16,25,15.70
2017,09,16,16,26,15.80
2017,09,16,16,27,15.90
2017,09,16,16,28,16.10
2017,09,16,16,29,16.20
2017,09,16,16,30,16.30
2017,09,16,16,31,16.40
2017,09,16,16,32,16.50
2017,09,16,16,33,16.60
2017,09,16,16,34,16.70
2017,09,16,16,35,16.80
2017,09,16,16,36,16.90
2017,09,16,16,37,17.00
2017,09,16,16,38,17.10
2017,09,16,16,39,17.20
2017,09,16,16,40,17.30
2017,09,16,16,41,17.40
2017,09,16,16,42,17.50
2017,09,16,16,43,17.50
2017,09,16,16,44,17.40
2017,09,16,16,45,17.30
2017,09,16,16,46,17.20
2017,09,16,16,47,17.20
2017,09,16,16,48,17.10
2017,09,16,16,49,17.00
2017,09,16,16,50,17.00
2017,09,16,16,51,17.00
2017,09,16,16,52,17.00
2017,09,16,16,53,17.00
2017,09,16,16,54,17.10
2017,09,16,16,55,17.20
2017,09,16,16,56,17.20
2017,09,16,16,57,17.30
2017,09,16,16,58,17.30
2017,09,16,16,59,17.40
2017,09,16,17,00,17.40
2017,09,16,17,01,17.40
2017,09,16,17,02,17.50
2017,09,16,17,03,17.60
2017,09,16,17,04,17.60
2017,09,16,17,05,17.60
2017,09,16,17,06,17.70
2017,09,16,17,07,17.70
2017,09,16,17,08,17.70
2017,09,16,17,09,17.70
2017,09,16,17,10,17.70
2017,09,16,17,11,17.80
2017,09,16,17,12,17.90
2017,09,16,17,13,17.90
2017,09,16,17,14,17.90
2017,09,16,17,15,17.90
2017,09,16,17,16,18.00
2017,09,16,17,17,17.90
2017,09,16,17,18,17.90
2017,09,16,17,19,17.80
2017,09,16,17,20,17.60
2017,09,16,17,21,17.30
2017,09,16,17,22,16.90
2017,09,16,17,23,16.60
2017,09,16,17,24,16.20
2017,09,16,17,25,15.80
2017,09,16,17,26,15.60
2017,09,16,17,27,15.40
2017,09,16,17,28,15.30
2017,09,16,17,29,15.10
2017,09,16,17,30,15.00
2017,09,16,17,31,14.90
2017,09,16,17,32,14.80
2017,09,16,17,33,14.80
2017,09,16,17,34,14.70
2017,09,16,17,35,14.60
2017,09,16,17,36,14.60